User: anonymous   Login
Location: Unspecified
(0.0000°N, 0.0000°E)
Time: 21:46:57
(UTC+00:00)
Language:

COSMOS 2416 - Orbit

View from above orbital plane
View from above orbital plane
View from above satellite
View from above satellite

Ground track
Ground track

The orbit data is extracted from the following two-line orbital elements,

1 28909U 05048B   17117.72538044 +.00000060 +00000-0 +30681-3 0  9992
2 28909 082.4652 283.0314 0007592 051.1902 308.9856 12.55163336519963
Epoch (UTC): 27 April 2017 17:24:32
Eccentricity: 0.0007592
inclination: 82.4652°
perigee height: 1437 km
apogee height: 1449 km
right ascension of ascending node: 283.0314°
argument of perigee: 51.1902°
revolutions per day: 12.55163336
mean anomaly at epoch: 308.9856°
orbit number at epoch: 51996

The dashed part of the orbit path shows where the satellite is in the earth's shadow,  

DLR